[[{"header":{"parameterUnit":"m.s-1","parameterCategory":1,"la1":30.2991,"la2":30.254,"lo1":-89.0895,"lo2":-89.0444,"dy":0.0017,"dx":0.0017,"nx":28,"ny":28,"refTime":"2023-08-28T03:00:00:Z","depth":0,"parameterNumber":2,"parameterNumberName":"U-component_of_WINDS"},"data":[0,0,0,0,0,0,0,0,0,0,0,0,0,0,0,0,0,0,0,0,0,0,0,0,0,0,0,0,0,0,0,0,0,0,0,0,0,0,0,0,0,0,0,0,0,0,0,0,0,0,0,0,0,0,0,0,0,0,-1.1845,-1.1845,0,-1.1807,-1.1807,-1.1806,-1.1765,-1.1764,-1.1764,-1.1763,-1.1724,-1.1724,-1.1723,0,0,0,0,0,0,0,0,0,0,0,0,0,-1.1885,-1.1884,-1.1845,-1.1845,-1.1845,-1.1807,-1.1807,-1.1806,-1.1765,-1.1764,-1.1763,-1.1763,-1.1724,-1.1724,-1.1723,0,0,0,0,0,0,0,0,0,0,0,0,0,-1.1859,-1.1884,-1.1846,-1.1819,-1.1817,-1.1807,-1.1807,-1.1806,-1.1765,-1.1764,-1.1763,-1.1762,-1.1725,-1.1724,-1.1723,-1.1737,0,0,-1.1721,-1.1721,0,0,0,0,0,0,0,0,-1.1861,-1.1858,-1.1824,-1.1821,-1.1818,-1.179,-1.1806,-1.1783,-1.1765,-1.1785,-1.1763,-1.1762,-1.1747,-1.1744,-1.1739,-1.1735,-1.1733,-1.1721,-1.172,-1.172,-1.172,0,0,0,0,0,0,0,-1.1863,-1.1859,-1.183,-1.1823,-1.182,-1.181,-1.1806,-1.1802,-1.1771,-1.1783,-1.178,-1.1776,-1.1745,-1.174,-1.1738,-1.1733,-1.1721,-1.172,-1.172,-1.172,-1.1741,-1.1742,0,0,0,0,0,0,-1.1868,-1.1861,-1.1832,-1.1829,-1.1838,-1.181,-1.1805,-1.18,-1.1771,-1.1766,-1.1777,-1.1774,-1.1741,-1.1739,-1.1736,-1.1752,-1.172,-1.1719,-1.1719,-1.174,-1.1741,-1.1742,0,0,0,0,0,0,-1.1869,-1.1866,-1.1833,-1.1844,-1.1839,-1.1811,-1.1805,-1.18,-1.1794,-1.1766,-1.1761,-1.1777,-1.1741,-1.1737,-1.1738,-1.175,-1.1719,-1.1718,-1.1739,-1.174,-1.1741,-1.1782,0,0,0,0,0,0,-1.187,-1.1866,-1.1871,-1.1845,-1.1839,-1.1834,-1.1806,-1.1799,-1.1793,-1.1789,-1.1765,-1.176,-1.174,-1.1739,-1.1737,-1.1748,-1.1718,-1.1737,-1.1739,-1.1741,-1.178,-1.1785,-1.1789,0,0,0,0,0,-1.1872,-1.1883,-1.1871,-1.1868,-1.1843,-1.1835,-1.1832,-1.1808,-1.1794,-1.1799,-1.1781,-1.1761,-1.1749,-1.1739,-1.1737,-1.1748,-1.1736,-1.1739,-1.1741,-1.1777,-1.1784,-1.1789,0,0,0,0,0,0,-1.191,-1.1879,-1.1865,-1.1868,-1.1855,-1.1828,-1.1833,-1.1815,-1.1805,-1.1802,-1.1773,-1.1768,-1.1772,-1.176,-1.175,-1.1761,-1.174,-1.1742,-1.1769,-1.1775,-1.1779,-1.1782,-1.1717,0,0,0,0,0,-1.1919,-1.1915,-1.1888,-1.1893,-1.1887,-1.1862,-1.1857,-1.184,-1.1825,-1.1819,-1.1801,-1.1788,-1.1781,-1.1777,-1.1769,-1.1778,-1.1773,-1.1785,-1.179,-1.1794,-1.1796,-1.1802,-1.1807,-1.1749,-1.1749,-1.1749,0,0,-1.1937,-1.192,-1.1918,-1.19,-1.1888,-1.1885,-1.1857,-1.1854,-1.1852,-1.1818,-1.1818,-1.1805,-1.1788,-1.1793,-1.1795,-1.1783,-1.1811,-1.1797,-1.18,-1.18,-1.1805,-1.181,-1.1815,-1.1751,-1.1751,-1.175,0,0,-1.1969,-1.1955,-1.1958,-1.1947,-1.1929,-1.1912,-1.1914,-1.189,-1.1881,-1.188,-1.1855,-1.1853,-1.1841,-1.1831,-1.1824,-1.1856,-1.1837,-1.1854,-1.1879,-1.1885,-1.189,-1.1894,-1.1906,-1.1911,-1.1856,-1.1856,-1.1856,0,-1.1993,-1.1987,-1.1962,-1.1962,-1.1956,-1.1926,-1.1931,-1.1921,-1.1902,-1.1898,-1.1886,-1.1873,-1.1859,-1.1863,-1.1871,-1.1866,-1.1867,-1.1856,-1.1891,-1.1895,-1.1898,-1.191,-1.1914,-1.1858,-1.1858,-1.1858,-1.1858,0,-1.2019,-1.2016,-1.2021,-1.2004,-1.1998,-1.2,-1.1977,-1.1974,-1.1959,-1.1944,-1.1945,-1.1928,-1.1918,-1.1917,-1.1901,-1.1919,-1.1913,-1.1896,-1.1874,-1.1906,-1.1917,-1.1921,-1.1862,-1.1861,-1.186,-1.1859,0,0,-1.2072,-1.2043,-1.2045,-1.2038,-1.2018,-1.2015,-1.2017,-1.2007,-1.2006,-1.1994,-1.1996,-1.1988,-1.1974,-1.1966,-1.195,-1.1955,-1.1983,-1.1938,-1.1937,-1.1947,-1.2003,-1.2016,-1.2021,-1.1971,-1.1971,-1.1972,-1.2005,0,-1.21,-1.2101,-1.208,-1.2087,-1.2085,-1.2059,-1.206,-1.2049,-1.2036,-1.2032,-1.2018,-1.2013,-1.1994,-1.199,-1.1994,-1.1978,-1.1993,-1.1976,-1.1973,-1.1973,-1.1977,-1.2026,-1.2039,-1.207,-1.2008,-1.2009,-1.2009,0,-1.2133,-1.2124,-1.2131,-1.2113,-1.2111,-1.2113,-1.2103,-1.21,-1.2087,-1.2077,-1.2071,-1.2052,-1.2054,-1.2034,-1.2037,-1.2025,-1.2023,-1.2016,-1.2016,-1.2015,-1.1993,-1.2026,-1.2079,-1.2084,-1.2015,-1.2015,-1.2014,0,-1.2172,-1.2162,-1.2166,-1.216,-1.2138,-1.2141,-1.2132,-1.2118,-1.2114,-1.2106,-1.2104,-1.2096,-1.2092,-1.2087,-1.2068,-1.2055,-1.2073,-1.2051,-1.2066,-1.2067,-1.207,-1.207,-1.2124,-1.2069,-1.2069,-1.2069,-1.2069,0,-1.2206,-1.2212,-1.2183,-1.2185,-1.2192,-1.2168,-1.2175,-1.2164,-1.2152,-1.2153,-1.213,-1.2131,-1.2105,-1.2103,-1.2088,-1.2094,-1.2092,-1.2085,-1.2081,-1.2087,-1.2088,-1.2085,-1.2082,-1.207,-1.207,-1.207,-1.2069,0,-1.225,-1.2231,-1.2234,-1.2213,-1.2209,-1.2214,-1.2197,-1.2199,-1.2186,-1.2187,-1.2185,-1.2164,-1.2161,-1.2142,-1.2134,-1.2125,-1.2136,-1.2127,-1.214,-1.2138,-1.2154,-1.2153,-1.2207,-1.2214,-1.2155,-1.2155,-1.2156,0,-1.2273,-1.2277,-1.2258,-1.2257,-1.2249,-1.2247,-1.2244,-1.2222,-1.2219,-1.2207,-1.221,-1.2206,-1.2201,-1.2198,-1.2182,-1.2177,-1.2169,-1.2188,-1.2168,-1.2175,-1.217,-1.217,-1.2171,-1.2193,-1.2193,-1.2194,-1.2195,0,-1.2316,-1.2308,-1.2303,-1.2297,-1.2293,-1.2287,-1.2279,-1.2279,-1.2256,-1.2254,-1.2251,-1.2248,-1.2241,-1.2238,-1.223,-1.2222,-1.2205,-1.2201,-1.2205,-1.2211,-1.2219,-1.2216,-1.2153,-1.22,-1.2199,-1.2199,-1.2199,-1.2199,-1.2351,-1.2354,-1.2342,-1.2339,-1.2331,-1.2325,-1.2326,-1.2313,-1.2311,-1.2304,-1.2291,-1.2291,-1.228,-1.2268,-1.2262,-1.2262,-1.2251,-1.2256,-1.2257,-1.2258,-1.2262,-1.2219,-1.226,-1.226,-1.226,-1.226,-1.2259,0,-1.2394,-1.2385,-1.2383,-1.2373,-1.2371,-1.2356,-1.2347,-1.2347,-1.2346,-1.2338,-1.2334,-1.2332,-1.2329,-1.2314,-1.231,-1.2313,-1.2305,-1.2312,-1.2312,-1.2311,-1.2271,-1.2269,-1.2319,-1.2319,-1.2319,-1.2319,-1.2319,-1.2319,-1.2416,-1.2421,-1.2411,-1.2413,-1.2404,-1.2403,-1.24,-1.2395,-1.2388,-1.2387,-1.2384,-1.2375,-1.2364,-1.2359,-1.2356,-1.2352,-1.2352,-1.2362,-1.2355,-1.2319,-1.2313,-1.2308,-1.2305,-1.2362,-1.2362,-1.2395,-1.2395,-1.2395]},{"header":{"parameterUnit":"m.s-1","parameterCategory":1,"la1":30.2991,"la2":30.254,"lo1":-89.0895,"lo2":-89.0444,"dy":0.0017,"dx":0.0017,"nx":28,"ny":28,"refTime":"2023-08-28T03:00:00:Z","depth":0,"parameterNumber":3,"parameterNumberName":"V-component_of_WINDS"},"data":[0,0,0,0,0,0,0,0,0,0,0,0,0,0,0,0,0,0,0,0,0,0,0,0,0,0,0,0,0,0,0,0,0,0,0,0,0,0,0,0,0,0,0,0,0,0,0,0,0,0,0,0,0,0,0,0,0,0,3.7006,3.7006,0,3.7038,3.7038,3.7038,3.7066,3.7066,3.7066,3.7067,3.7096,3.7096,3.7096,0,0,0,0,0,0,0,0,0,0,0,0,0,3.6967,3.6968,3.7006,3.7006,3.7007,3.7038,3.7038,3.7038,3.7066,3.7066,3.7066,3.7067,3.7095,3.7096,3.7097,0,0,0,0,0,0,0,0,0,0,0,0,0,3.699,3.6968,3.7006,3.7024,3.7026,3.7037,3.7038,3.7038,3.7065,3.7066,3.7066,3.7067,3.7095,3.7096,3.7097,3.7091,0,0,3.7099,3.7099,0,0,0,0,0,0,0,0,3.6989,3.6991,3.7021,3.7023,3.7025,3.7048,3.7035,3.7056,3.7065,3.705,3.7067,3.7067,3.7079,3.7081,3.7086,3.7093,3.7094,3.7099,3.7099,3.71,3.71,0,0,0,0,0,0,0,3.6987,3.699,3.7018,3.7021,3.7024,3.703,3.7034,3.7039,3.7062,3.7052,3.7054,3.7057,3.708,3.7085,3.7087,3.7094,3.7099,3.7099,3.71,3.71,3.71,3.7099,0,0,0,0,0,0,3.6983,3.6989,3.7017,3.7019,3.7008,3.703,3.7035,3.704,3.7062,3.7065,3.7057,3.7059,3.7084,3.7086,3.7088,3.7084,3.71,3.71,3.7101,3.71,3.71,3.7099,0,0,0,0,0,0,3.6982,3.6985,3.7016,3.7005,3.7009,3.7031,3.7037,3.7041,3.7046,3.7066,3.707,3.7058,3.7084,3.7087,3.7091,3.7085,3.7101,3.7101,3.7101,3.71,3.71,3.7075,0,0,0,0,0,0,3.6981,3.6985,3.6983,3.7004,3.701,3.7019,3.7036,3.7041,3.7047,3.705,3.7068,3.7071,3.7085,3.709,3.7092,3.7087,3.7102,3.7101,3.71,3.71,3.7077,3.7074,3.7071,0,0,0,0,0,3.6979,3.6974,3.6983,3.6986,3.7008,3.7018,3.7021,3.7038,3.7047,3.7045,3.7058,3.707,3.7086,3.709,3.7092,3.7087,3.7102,3.7101,3.71,3.7078,3.7074,3.7072,0,0,0,0,0,0,3.695,3.6977,3.6987,3.6989,3.7001,3.7023,3.7021,3.7034,3.7043,3.7045,3.7065,3.7069,3.7071,3.7079,3.7083,3.7084,3.7096,3.7095,3.7078,3.7075,3.7072,3.707,3.7102,0,0,0,0,0,3.6944,3.6951,3.6974,3.6973,3.6979,3.6999,3.7004,3.7017,3.703,3.7035,3.7048,3.706,3.7068,3.7072,3.708,3.7079,3.7083,3.7077,3.7074,3.7072,3.7071,3.7071,3.7069,3.7096,3.7096,3.7096,0,0,3.6931,3.6947,3.6949,3.6968,3.6979,3.6985,3.7003,3.7009,3.7013,3.7035,3.704,3.7051,3.7065,3.7066,3.7068,3.7074,3.7064,3.707,3.7069,3.7069,3.707,3.7067,3.7065,3.7095,3.7096,3.7096,0,0,3.691,3.6923,3.6924,3.6936,3.6953,3.6967,3.6967,3.6988,3.6996,3.7002,3.7019,3.7024,3.7037,3.7047,3.7053,3.7039,3.7051,3.7041,3.7027,3.7028,3.7025,3.7024,3.7018,3.7016,3.704,3.704,3.704,0,3.6891,3.6902,3.6923,3.6928,3.6936,3.6958,3.6959,3.6969,3.6987,3.6992,3.6999,3.7017,3.7028,3.7032,3.7029,3.7034,3.7034,3.7038,3.7024,3.7023,3.7021,3.7017,3.7015,3.7039,3.7039,3.7039,3.7039,0,3.6878,3.6886,3.6885,3.6904,3.6912,3.6915,3.6935,3.6941,3.6953,3.6966,3.6972,3.6987,3.6999,3.7001,3.7012,3.7007,3.7011,3.7021,3.7032,3.7017,3.7013,3.7011,3.7037,3.7038,3.7038,3.7038,0,0,3.6837,3.6871,3.687,3.6879,3.6901,3.6907,3.6912,3.6925,3.6929,3.6942,3.6945,3.6957,3.6967,3.6975,3.6988,3.6988,3.6976,3.6998,3.6999,3.6993,3.6972,3.6964,3.6961,3.6985,3.6985,3.6984,3.6971,0,3.682,3.683,3.685,3.6854,3.6861,3.6884,3.6888,3.6902,3.6915,3.6922,3.6936,3.6944,3.6957,3.6962,3.6963,3.6977,3.6972,3.6979,3.6988,3.6988,3.6983,3.6959,3.695,3.6936,3.6969,3.6969,3.6969,0,3.68,3.6814,3.6819,3.6842,3.6846,3.6849,3.6864,3.6871,3.6887,3.6897,3.6906,3.6921,3.6927,3.6939,3.6947,3.6951,3.6956,3.6964,3.6964,3.6964,3.6977,3.6958,3.6932,3.693,3.6967,3.6967,3.6967,0,3.677,3.6789,3.6795,3.6803,3.683,3.6832,3.6843,3.686,3.6867,3.688,3.6885,3.6897,3.6904,3.6913,3.6931,3.6938,3.6937,3.695,3.6944,3.6944,3.6942,3.6941,3.6915,3.6946,3.6946,3.6946,3.6947,0,3.6748,3.675,3.6782,3.6785,3.6789,3.6812,3.6814,3.6827,3.6843,3.6849,3.6869,3.6874,3.6898,3.6905,3.692,3.6924,3.6927,3.6934,3.6938,3.6932,3.6931,3.6935,3.6936,3.6946,3.6946,3.6946,3.6946,0,3.6713,3.6735,3.6743,3.677,3.6776,3.6777,3.68,3.6804,3.6819,3.6826,3.6829,3.6853,3.6863,3.6882,3.6897,3.6907,3.6908,3.6915,3.6903,3.6905,3.6898,3.6898,3.6873,3.687,3.6903,3.6903,3.6903,0,3.6697,3.67,3.6727,3.6734,3.6745,3.6755,3.6763,3.6786,3.6794,3.6814,3.6815,3.6828,3.6839,3.6854,3.6872,3.6884,3.6891,3.6881,3.6892,3.6887,3.689,3.6889,3.689,3.6878,3.6877,3.6877,3.6877,0,3.6666,3.6678,3.669,3.6706,3.6716,3.6729,3.6743,3.6747,3.6773,3.6781,3.6793,3.6802,3.6819,3.683,3.6846,3.6856,3.687,3.6873,3.6872,3.6866,3.6859,3.6862,3.6895,3.6873,3.6874,3.6874,3.6874,3.6874,3.664,3.6644,3.6665,3.6678,3.6692,3.6705,3.6711,3.6728,3.6738,3.6755,3.6768,3.6779,3.6796,3.6819,3.6829,3.6837,3.6844,3.6842,3.6842,3.6841,3.6839,3.6859,3.684,3.684,3.684,3.684,3.684,0,3.661,3.6625,3.6637,3.6658,3.6668,3.6683,3.67,3.6707,3.6717,3.6733,3.6745,3.6759,3.6771,3.679,3.6804,3.6807,3.6814,3.681,3.6809,3.6811,3.6832,3.6831,3.6804,3.6804,3.6804,3.6804,3.6804,3.6804,3.6596,3.6603,3.6617,3.6632,3.6647,3.6659,3.6668,3.668,3.6693,3.6709,3.672,3.6733,3.6751,3.6766,3.6778,3.6783,3.6787,3.6781,3.6788,3.6807,3.681,3.6813,3.6812,3.6781,3.6781,3.6766,3.6766,3.6766]}]]